www.pogodaiklimat.ru

Погода и климат >> Архив погоды >> Россия >> Ивановская область >> Шуя


ПОГОДА в Шуе

  • Прогноз погоды в Шуе
  • Монитор погоды в Шуе

АРХИВ ПОГОДЫ в Шуе

Время (UTC), дата Ветер
(напр.,м/с)
 
Видим.   Явления Облачность Т
(С)
Тd
(С)
f
(%)
Тe
(С)
Тes
(С)
Комфортность P
(гПа)
Po
(гПа)
Тmin
(С)
Tmax
(С)
R
(мм)
R24
(мм)
S
(см)
00 19.06 З 1 10 км ясно +13.9 +12.7 92 +14 +14 1012.4 1000.8
03 19.06 З 1 10 км ясно +16.5 +13.5 82 +17 +20 1013.1 1001.6 +13.3
06 19.06 СЗ 3 10 км ясно +21.3 +13.1 59 +24 +32 комфорт 1013.4 1001.9
09 19.06 СЗ 3 10 км 3/3 1000 м
[Cu hum]
+25.7 +9.7 36 +26 +35 жарко 1013.6 1002.4
12 19.06 СЗ 3 10 км 6/6 1000 м
[Cu med, cong]
+27.4 +9.5 33 +28 +31 жарко 1013.5 1002.4
15 19.06 СЗ 4 10 км 8/3 1000 м
[Cu med, cong Ci fib]
+26.5 +10.4 36 +27 +28 жарко 1013.4 1002.2 +27.4
18 19.06 З 1 10 км 8/0
[Ci fib]
+21.3 +10.6 50 +23 +23 комфорт 1013.9 1002.5
21 19.06 штиль 0 10 км 8/0
[Ci fib]
+13.9 +10.7 81 +14 +14 1015.0 1003.4
00 20.06 Ю 1 10 км 3/0
[Ci fib]
+13.6 +10.7 83 +14 +14 1015.4 1003.7
03 20.06 З 1 10 км 5/0
[Ci fib]
+16.8 +11.7 72 +18 +20 1016.2 1004.5 +12.9
06 20.06 З 1 10 км 3/0
[Ci fib]
+25.0 +13.0 47 +27 +38 жарко 1016.1 1004.8
09 20.06 СЗ 3 10 км 4/3 1000 м
[Cu hum Ci fib]
+27.6 +7.1 27 +27 +36 жарко 1015.9 1004.7
12 20.06 СЗ 3 10 км 8/1 1000 м
[Cu hum Ci fib]
+28.7 +6.4 24 +28 +35 жарко 1015.5 1004.4
15 20.06 З 2 10 км 8/0
[Ci fib]
+28.3 +6.8 26 +28 +30 жарко 1015.3 1004.2 +28.7
18 20.06 штиль 0 10 км 9/0
[Ac As Ci fib]
+20.3 +10.8 54 +22 +22 комфорт 1015.9 1004.5
21 20.06 штиль 0 10 км 3/0
[Ac As Ci fib]
+13.6 +11.0 84 +13 +13 1017.2 1005.5
00 21.06 штиль 0 10 км 3/0
[Ci fib]
+11.2 +9.7 90 +11 +11 1017.8 1005.9
03 21.06 штиль 0 10 км 6/0
[Ac As Ci fib]
+15.3 +12.5 83 +15 +17 1018.3 1006.7 +10.2
06 21.06 ЮЗ 2 10 км 6/0
[Ac trans Ci fib]
+26.4 +11.1 38 +27 +34 жарко 1017.6 1006.4
09 21.06 З 2 10 км 6/3 1000 м
[Cu med, cong Ac trans Ci fib]
+29.6 +6.2 23 +28 +37 жарко 1016.8 1005.7
12 21.06 Ю 1 10 км 10/8 1000 м
[Cu med, cong Ci fib]
+29.3 +9.2 29 +29 +31 жарко 1016.2 1005.1
15 21.06 З 2 10 км 8/3 1000 м
[Cu med, cong Ci fib]
+29.2 +9.5 29 +29 +31 жарко 1015.4 1004.3 +30.6
18 21.06 ЮВ 2 10 км 4/0
[Ac trans]
+22.1 +13.1 57 +25 +25 комфорт 1015.1 1003.7
21 21.06 штиль 0 10 км 10/10 600 м
[Sc]
+20.2 +14.4 69 +22 +22 комфорт 1015.4 1004.0
00 22.06 ЮВ 1 10 км 10/10 600 м
[Sc]
+18.9 +14.8 77 +21 +21 комфорт 1015.4 1004.0
03 22.06 ЮЗ 1 10 км 9/8 600 м
[Sc Ac trans]
+21.3 +13.8 62 +24 +24 комфорт 1014.9 1003.6 +18.3
06 22.06 Ю 1 10 км 10/9 600 м
[Sc Ac und]
+24.4 +14.6 54 +27 +27 жарко 1014.2 1002.9
09 22.06 ЮЗ 3 10 км 4/0
[Cc]
+28.7 +14.8 43 +31 +43 жарко 1013.9 1002.8
12 22.06 ЮЗ 5
{10}
10 км 3/3 1000 м
[Cu med, cong Cc]
+30.7 +13.9 36 +32 +36 жарко 1012.8 1001.8
15 22.06 З 5
{10}
10 км 4/3 1000 м
[Cu hum Ac lent]
+30.6 +12.7 33 +31 +32 жарко 1012.0 1001.0 +31.3
18 22.06 З 3
{10}
10 км 8/8 600 м
[Cb cap]
+26.4 +13.4 45 +28 +28 жарко 1013.1 1002.0
21 22.06 З 2 10 км 6/0
[Ac cast Ci fib]
+21.4 +15.0 67 +25 +25 комфорт 1014.3 1003.0
00 23.06 З 1 10 км 9/9 600 м
[Sc]
+19.3 +15.9 81 +22 +22 комфорт 1016.0 1004.5
03 23.06 СЗ 3 10 км 3/3 600 м
[Sc Ac trans]
+19.1 +15.8 81 +21 +22 комфорт 1017.3 1005.8 +18.8
06 23.06 С 4 10 км 3/3 1000 м
[Cu med, cong]
+23.1 +14.9 60 +27 +32 душно 1018.3 1006.8
09 23.06 СЗ 5 10 км 8/6 600 м
[Cu med, cong Ci fib]
+25.1 +12.3 45 +27 +30 жарко 1018.4 1007.0
12 23.06 З 4
{10}
10 км 3/1 1000 м
[Cu hum Ac trans Ci fib]
+26.0 +6.3 28 +26 +32 жарко 1018.5 1007.2
15 23.06 С 4 10 км 3/0
[Ac trans]
+24.4 +4.6 28 +24 +26 комфорт 1018.2 1006.9 +26.5
18 23.06 С 3 10 км 8/8 600 м
[Cb cap Ac trans]
+19.2 +7.3 46 +20 +20 1018.8 1007.1
21 23.06 штиль 0 10 км 9/8 600 м
[Sc Ci fib]
+16.1 +8.0 59 +16 +16 1019.7 1008.1
00 24.06 штиль 0 10 км 9/4 600 м
[Sc Ac trans Ci fib]
+13.6 +8.1 69 +13 +13 1020.4 1008.6
03 24.06 штиль 0 10 км 8/0
[Ac trans Ci fib]
+13.9 +9.1 73 +14 +16 1021.3 1009.4 +12.5
06 24.06 СЗ 3 10 км 3/1 1000 м
[Cu hum Ac trans]
+21.6 +5.7 35 +22 +28 комфорт 1020.9 1009.4
09 24.06 СЗ 4 10 км 4/1 1000 м
[Cu hum Ac As]
+23.8 +1.8 24 +23 +30 комфорт 1020.4 1009.0
12 24.06 С 6
{10}
10 км 8/1 1000 м
[Cu hum Ac As Ci fib]
+23.3 +0.7 22 +22 +25 комфорт 1020.9 1009.5
15 24.06 С 4
{10}
10 км 6/1 1000 м
[Cu hum Ac As]
+21.7 +3.1 29 +22 +23 комфорт 1021.1 1009.7 +24.8
18 24.06 С 2 10 км 3/0
[Ac As]
+16.4 +4.0 44 +17 +17 1022.1 1010.4
21 24.06 СЗ 1 10 км 3/0
[Ac As Ci fib]
+11.6 +6.3 70 +12 +12 1023.5 1011.6
00 25.06 штиль 0 10 км 3/0
[Ci fib]
+7.5 +5.0 84 +7 +7 1024.3 1012.2
03 25.06 С 1 10 км ясно +12.6 +8.9 78 +13 +15 1024.9 1013.1 +7.5
06 25.06 СЗ 5 10 км 4/4 600 м
[Cu med, cong]
+18.7 +7.0 46 +19 +22 1025.0 1013.4
09 25.06 СЗ 5
{10}
10 км 8/8 1000 м
[Cu med, cong]
+20.7 +4.8 35 +21 +23 комфорт 1024.9 1013.3
12 25.06 СЗ 5
{11}
10 км 8/8 1000 м
[Cu med, cong Ci fib]
+21.5 +4.6 33 +22 +23 комфорт 1024.8 1013.3
15 25.06 С 6
{10}
10 км 9/3 1000 м
[Cu med, cong Ci fib]
+18.7 +4.7 40 +18 +19 1025.0 1013.3 +21.5
18 25.06 СЗ 2 10 км 8/0
[Ac trans Ci fib]
+14.3 +6.3 59 +14 +14 1025.6 1013.8

 

Местоположение метеостанции Шуя (Ивановская область, Россия): широта 56.85 долгота 41.40 высота над уровнем моря 99 м.

В архиве по умолчанию представлена погода в Шуе за последнюю неделю. Архивные данные за месяц целиком и за предыдущие месяцы, начиная с января 2011 года, Вы можете получить, выбрав интересующий диапазон дат из раскрывающегося списка и нажав кнопку "Ввод!".


*Определитесь, кто Вы:
робот инопланетянин человек

Внимание! Время в таблицах - всемирное. Для получения местного времени необходимо прибавить поправку, которая равна 3 ч.

Смотрите также архив погоды в соседних городах и на ближайших метеорологических станциях:

Погода в Пешном (Атырауская область, Казахстан) (19 км)
Погода в Иванове (Ивановская область, Россия) (28 км)
Погода в Вичуге (Ивановская область, Россия) (52 км)
Погода в Тейково (Ивановская область, Россия) (52 км)
Погода в Коврове (Владимирская область, Россия) (55 км)
Погода в Приволжске (Ивановская область, Россия) (59 км)
Погода в Плесе (Ивановская область, Россия) (66 км)
Погода в Суздале (Владимирская область, Россия) (75 км)
Погода в Кинешме (Ивановская область, Россия) (79 км)
Погода в Вязниках (Владимирская область, Россия) (86 км)

Пояснения к столбцам:

Ветер - указаны скорость ветра в м/с - средняя за 10 мин, порывы в срок и между сроками (в фигурных скобках) и направление, откуда дует ветер: С - северный, СВ - северо-восточный, В - восточный, ЮВ - юго-восточный, Ю - южный, ЮЗ - юго-западный, З - западный, СЗ - северо-западный.
Видимость - горизонтальная дальность видимости в метрах или километрах. При видимости от 1 до 10 км при отсутствии осадков обычно наблюдается дымка, при ухудшении видимости до 1 км и менее - туман. В сухую погоду видимость может ухудшаться дымом, пылью или мглою.
Явления - указаны атмосферные явления, наблюдавшиеся в срок или в последний час перед сроком; фигурными скобками обозначены явления, наблюдавшиеся между сроками (за 1-3 часа до срока); квадратными скобками обозначены град или гололедные отложения с указанием их диаметра в мм.
Облачность - указаны через наклонную черту общая и нижняя облачность в баллах и высота нижней границы облаков в метрах; квадратными скобками обозначены формы облаков: Ci - перистые, Cs - перисто-слоистые, Cc - перисто-кучевые, Ac - высококучевые, As - высокослоистые, Sc - слоисто-кучевые, Ns - слоисто-дождевые, Cu - кучевые, Cb - кучево-дождевые. Подробнее классификацию облаков см. в Атласе облаков (PDF).
T - Температура воздуха - температура, измеренная на высоте 2 м над землей.
Td - Температура точки росы - температура, при понижении до которой содержащийся в воздухе водяной пар достигнет насыщения.
f - Относительная влажность воздуха - влажноcть воздуха, измеренная на высоте 2 м над землей.
Te - Эффективная температура - температура, которую ощущает одетый по сезону человек в тени. Характеристика душности погоды. При расчете учитывается влияние влажности воздуха и скорости ветра на теплоощущения человека.
Tes - Эффективная температура на солнце - температура, которую ощущает человек, с поправкой на солнечный нагрев. Характеристика знойности погоды. Зависит от высоты солнца над горизонтом, облачности и скорости ветра. Ночью, в пасмурную погоду, а также при ветре 12 м/с и более поправка равна нулю.
P - Атмосферное давление - приведенное к уровню моря атмосферное давление.
Po - Атмосферное давление - измеренное на уровне метеостанции атмосферное давление.
Tmin - Минимальная температура - минимум температуры воздуха на высоте 2 м над землей.
Tmax - Максимальная температура - максимум температуры воздуха на высоте 2 м над землей.
R - Количество осадков - Количество выпавших осадков за период времени, мм. При наведении курсора мыши на число - период времени, за который выпало указанное количество осадков.
R24 - Количество осадков - Количество выпавших осадков за 24 часа, мм.
S - Снежный покров - Высота снежного покрова, см. При наведении курсора мыши на число - состояние снежного покрова и степень покрытия местности в баллах.